Location: Ferintosh
(52.7647°N, 112.9692°W)
Time: 09:18:14
(UTC+00:00)

A-11 Canister half - Pass Details

Date: 24 May 2024
Orbit: 1514 x 1685 km, 47.2° (Epoch: 28 April)

Event Time Altitude Azimuth Distance (km) Brightness Sun altitude
Rises 10:14:53 0° 238° (WSW) 4,765 - -8.0°
Exits shadow 10:17:17 - 235° (SW) 4,007 10.6 -7.8°
Reaches altitude 10° 10:18:05 10° 234° (SW) 3,759 10.4 -7.7°
Maximum altitude 10:27:09 53° 161° (SSE) 1,825 9.3 -6.8°
Drops below altitude 10° 10:36:01 10° 88° (E) 3,680 11.7 -5.9°
Sets 10:39:07 0° 84° (E) 4,659 12.4 -5.6°
